Regional Weather Roundup
Issued by NWS Glasgow, MT

Current Version | Previous Version | Text Only | Print | Product List | Glossary On
Versions: 1 2 3 4 5 6 7 8 9 10 11 12 13 14 15 16 17 18 19 20 21 22 23 24 25 26 27 28 29 30 31 32 33 34 35 36 37 38 39 40 41 42 43 44 45 46 47 48 49 50
887
ASUS45 KGGW 271715
RWRGGW
HOURLY REGIONAL WEATHER ROUNDUP FOR NORTHEAST MONTANA
NATIONAL WEATHER SERVICE GLASGOW MONTANA
1000 AM MST MON FEB 27 2017

NOTE: "FAIR" INDICATES FEW OR NO CLOUDS BELOW 12,000 FEET WITH NO
SIGNIFICANT WEATHER AND/OR OBSTRUCTIONS TO VISISBILITY.

NORTHEAST MONTANA


CITY           SKY/WX    TMP DP  RH WIND       PRES   REMARKS
GLASGOW        CLOUDY    14   8  77 E9        29.79R
PLENTYWOOD       N/A     11   0  61 NE6         N/A
WOLF POINT     LGT SNOW  13   6  74 E13       29.83S WCI  -2
JORDAN           N/A     19  13  77 NE8       29.74S
WINNETT          N/A     25  19  78 SE1         N/A
SIDNEY         LGT SNOW  18  12  79 NE15      29.82F
GLENDIVE       FLURRIES  17  13  84 NE18      29.73F
MALTA            N/A     18  12  77 E3          N/A
SCOBEY           N/A     12  -1  56 CALM      29.79S

FORT PECK REPORTS


CITY           SKY/WX    TMP DP  RH WIND       PRES   REMARKS
FORT PECK        N/A     16  11  80 E12         N/A
THE PINES        N/A     18  12  77 CALM        N/A

SOUTHEAST MONTANA


CITY           SKY/WX    TMP DP  RH WIND       PRES   REMARKS
BILLINGS       CLOUDY    21  15  78 NE3       29.65S
MILES CITY     CLOUDY    23  17  78 NE14      29.69R
BAKER          PTSUNNY   26  19  74 SE10      29.66S
LIVINGSTON     CLOUDY    19  14  81 E7        29.56F

CENTRAL MONTANA


CITY           SKY/WX    TMP DP  RH WIND       PRES   REMARKS
HAVRE          CLOUDY    15  10  80 E12       29.71F
LEWISTOWN      SUNNY     13   7  77 E12       29.59F WCI  -1
GREAT FALLS    MOSUNNY   12   9  87 CALM      29.60S
CUT BANK       CLOUDY    10   7  87 SE12      29.57F FOG     WCI  -5
HELENA         CLOUDY    14   7  73 NW3       29.62S
BUTTE          CLOUDY    18   8  65 NW3       29.51F
BOZEMAN        SUNNY     19  13  77 E5        29.59S

WESTERN MONTANA


CITY           SKY/WX    TMP DP  RH WIND       PRES   REMARKS
MISSOULA       CLOUDY    24  19  81 SE8       29.61S
KALISPELL      NOT AVBL

NORTH DAKOTA


CITY           SKY/WX    TMP DP  RH WIND       PRES   REMARKS
WILLISTON      LGT SNOW  12   5  73 NE9       29.85R
DICKINSON      CLOUDY    18  14  84 NE14      29.71F FOG
MINOT          LGT SNOW  12   6  77 NW12      29.86S WCI  -2
BISMARCK       CLOUDY    19  15  84 NE8       29.83R

SOUTHERN SASKATCHEWAN


CITY           SKY/WX    TMP DP  RH WIND       PRES   REMARKS
REGINA         MOSUNNY    5  -2  72 W3        29.84S
MOOSE JAW      MOSUNNY    7  -4  61 W5        29.85S
ESTEVAN        CLOUDY     5   0  78 N7        29.86S
SWIFT CURRENT  SUNNY      5   3  92 S9        29.73S





USA.gov is the U.S. government's official web portal to all federal, state and local government web resources and services.